STARLINK-35296 (65801 NORAD) Tracking and Keplerian Element Data

This shows tracking and keplerian element data for the satellite.

Feedback or suggestion? Click here.




ElementValue
Catalog65801
NameSTARLINK-35296
Epoch Orbit1300
Epoch Day354.14119961
Epoch Year2025
RAAN214.6021
Inclination97.6038
Eccentricity0.0003533
Argument of Perigee64.1542
Mean Anonmoly296.0049
Mean Motion15.05647428
Decay Rate2.003E-05
L11 65801U 25218L 25354.14119961 .00002003 00000+0 14300-3 0 9994
L22 65801 97.6038 214.6021 0003533 64.1542 296.0049 15.05647428 13003



Live tracking and technical data element details for STARLINK-35296 (NORAD 65801). STARLINK-35296 can be tracked NOW for your location showing map with azimuth and elevation plus other details from your city location.







IsCatalogInMostPopularTable: catalog: 65801, numindb: 8
Update: records affected: 1



GetName: 65801 STARLINK-35296

Hit Count: updated at: Wed, 15 Apr 2026 01:16:51 GMT